Regional Weather Roundup
Issued by NWS Little Rock, AR

Home | Current Version | Previous Version | Text Only | Print | Product List | Glossary Off
Versions: 1 2 3 4 5 6 7 8 9 10 11 12 13 14 15 16 17 18 19 20 21 22 23 24 25 26 27 28 29 30 31 32 33 34 35 36 37 38 39 40 41 42 43 44 45 46 47 48 49 50

000
ASUS44 KLZK 301605
RWRLZK

WEATHER ROUNDUP FOR ARKANSAS
NATIONAL WEATHER SERVICE LITTLE ROCK AR
1100 AM CDT THU MAR 30 2017

NOTE: "FAIR" INDICATES FEW OR NO CLOUDS BELOW 12,000 FEET WITH NO
SIGNIFICANT WEATHER AND/OR OBSTRUCTIONS TO VISIBILITY.

ARZ001-003-010-029-301700-
NORTHWEST ARKANSAS

CITY           SKY/WX    TMP DP  RH WIND       PRES   REMARKS
FAYETTEVILLE   CLOUDY    46  41  82 SW10G21   29.68R
FORT SMITH     CLOUDY    52  40  63 W18G25    29.72R
HARRISON       CLOUDY    49  40  71 SW8       29.66R
BENTONVILLE    CLOUDY    46  43  87 W16       29.66S
ROGERS         LGT RAIN  46  42  86 W17       29.66S
SILOAM SPGS    CLOUDY    46  39  76 SW17      29.66S
HIGHFILL       LGT RAIN  46  43  89 W14G22    29.66R
SPRINGDALE     CLOUDY    46  41  81 SW15G23   29.68R
$$

ARZ004-005-016-301700-
NORTH CENTRAL ARKANSAS

CITY           SKY/WX    TMP DP  RH WIND       PRES   REMARKS
BATESVILLE     CLOUDY    57  46  67 SW15      29.69R
FLIPPIN        CLOUDY    55  37  50 SW13      29.64R
MTN HOME       PTSUNNY   55  42  61 W14G21    29.64R
$$

ARZ040-041-301700-
WEST CENTRAL ARKANSAS

CITY           SKY/WX    TMP DP  RH WIND       PRES   REMARKS
MENA           CLOUDY    52  46  82 SW7       29.77R
MOUNT IDA      CLOUDY    54  41  61 VRB3      29.74R
$$

ARZ009-017-025-026-028-301700-
NORTHEAST ARKANSAS

CITY           SKY/WX    TMP DP  RH WIND       PRES   REMARKS
JONESBORO      LGT RAIN  67  61  81 S26G37    29.63F
NEWPORT        PTSUNNY   65  55  70 SW21      29.65R
WALNUT RIDGE   MOSUNNY   70  55  60 S33G40    29.60F
BLYTHEVILLE    PTSUNNY   69  61  75 SW24G37   29.66F
$$

ARZ022-023-033-042-044-301700-
CENTRAL ARKANSAS

CITY           SKY/WX    TMP DP  RH WIND       PRES   REMARKS
LITTLE ROCK    MOSUNNY   61  47  59 SW17G26   29.74R
N LITTLE ROCK    N/A     58  48  71 W8G20     29.72R
JACKSONVILLE   PTSUNNY   61  51  70 W8        29.71R
CONWAY           N/A     55  45  67 W16       29.73S
HOT SPRINGS    CLOUDY    55  44  66 SW12      29.77R
RUSSELLVILLE   CLOUDY    53  42  66 W14       29.73R
$$

ARZ036-301700-
EAST ARKANSAS

CITY           SKY/WX    TMP DP  RH WIND       PRES   REMARKS
WEST MEMPHIS   CLOUDY    69  62  78 S18G28    29.66F
$$

ARZ050-053-066-070-073-301700-
SOUTHWEST ARKANSAS

CITY           SKY/WX    TMP DP  RH WIND       PRES   REMARKS
ARKADELPHIA    PTSUNNY   58  45  62 SW15G23   29.79S
CAMDEN         MOSUNNY   63  43  48 S12G17    29.80F
TEXARKANA      MOSUNNY   58  44  60 W14       29.81R
EL DORADO      CLOUDY    59  46  62 SW13      29.82F
DE QUEEN       CLOUDY    54  44  69 W13       29.79R
$$

ARZ056-057-069-301700-
SOUTHEAST ARKANSAS

CITY           SKY/WX    TMP DP  RH WIND       PRES   REMARKS
PINE BLUFF     SUNNY     63  46  54 SW17G25   29.75F
STUTTGART      SUNNY     66  46  48 SW22G30   29.73F
MONTICELLO     MOSUNNY   64  50  60 SW14G21   29.77F

$$





USA.gov is the U.S. government's official web portal to all federal, state and local government web resources and services.